LEIB

Ibiza Airport

Airport
ICAO code
LEIB
IATA Code
IBZ
Summary
ICAO Region
EUR
ICAO Territory
Location

Es Codolá, Ibiza, Balearics,

Serving
Ibiza
Elevation
24 ft
Coordinates
38° 52' 24" N , 1° 22' 24" E
KCC
Metar
Observation
LEIB 271100Z 21007KT 9999 SCT025 BKN027 17/11 Q1025 NOSIG
Station
Ibiza / Es Codola
Date/Time
2022-11-27 11:00:00
Wind direction
210°
Wind speed
07 kts
Lowest cloud amount
scattered clouds
Temperature
17°C
Dew point
11°C
Humidity
67%
QNH
1025 hPa
Weather condition
n/a

International airport serving island of Ibiza.

Climatology

Dry-summer subtropical ”Mediterranean" climate (Köppen climate classification Csa) - characterized by hot, dry summers and mild winters. During the summer, subtropical high pressure cells dominate, making rainfall unlikely except for the occasional thunderstorm. In the winter, periodic storms bring rain.

Runways

Designator Length Width Surface Rops
6/24 2800 45 ASP Yes/Yes

Airport map

Aerial View

SKYbrary Partners:

Safety knowledge contributed by: